Flag for U.S.A. Weather past 2 weeks in Boulder, Colorado, U.S.A.

Now
77 °F

Thundershowers. Broken clouds.


Feels Like: 78 °F
Forecast: 54 / 81 °F
Wind: No wind

Location: Broomfield / Jeffco

Current Time: Aug 23, 2014 at 2:37:44 PM

Latest Report: Aug 23, 2014 at 1:45 PM


Visibility: 30 mi

Pressure: 29.94 "Hg

Humidity: 34%

Dew point: 46 °F

Location of BoulderLocation

Historic Weather in Boulder — Graph

°F

Boulder temperature yesterday

Maximum temperature yesterday: 72 °F (at 1:50 PM)
Minimum temperature yesterday: 61 °F (at 3:34 AM)
Average temperature yesterday: 64 °F

Past Weeks' High & Low Weather Summary

 TemperatureHumidityPressure
High91 °F (Aug 13, 3:53 PM)100% (Aug 23, 3:54 AM)30.41 "Hg (Aug 23, 3:54 AM)
Low57 °F (Aug 11, 5:53 AM)13% (Aug 16, 2:50 PM)29.92 "Hg (Aug 20, 3:34 AM)
Average70 °F49%30.16 "Hg
* Reported Aug 8 12:45 PM — Aug 23 12:48 PM, Boulder, Weather by CustomWeather, © 2014

Note: Actual official high and low records may vary slightly from our data, if they occured in-between our weather recording intervals... More about our weather records

Advertising

Boulder weather history for previous 24 hours

 ConditionsComfort  
Time TempWeatherWind HumidityBarometerVisibility
12:48 PM
Aug 23
75 °FPartly sunny.No wind47%29.95 "Hg30 mi
11:47 AM77 °FBroken clouds.6 mph44%29.96 "Hg30 mi
10:45 AM68 °FBroken clouds.6 mph73%29.98 "Hg7 mi
9:47 AM64 °FBroken clouds.No wind83%29.99 "Hg10 mi
8:47 AM63 °FPartly sunny.3 mph88%29.99 "Hg10 mi
7:47 AM63 °FScattered clouds.3 mph88%29.99 "Hg20 mi
6:45 AM57 °FFog.7 mph100%29.99 "Hg5 mi
5:55 AM57 °FFog.9 mph100%29.99 "Hg7 mi
5:54 AM57 °FFog.7 mph94%29.99 "Hg5 mi
5:34 AM57 °FClear.5 mph94%29.99 "Hg10 mi
5:14 AM57 °FClear.6 mph94%29.99 "Hg10 mi
4:54 AM59 °FClear.No wind88%29.99 "Hg10 mi
4:34 AM59 °FClear.3 mph94%30.00 "Hg10 mi
4:14 AM57 °FClear.No wind100%30.00 "Hg10 mi
3:54 AM57 °FClear.No wind100%30.00 "Hg10 mi
3:34 AM57 °FClear.No wind94%30.00 "Hg10 mi
3:14 AM57 °FClear.3 mph94%30.00 "Hg10 mi
2:54 AM57 °FClear.5 mph94%30.01 "Hg10 mi
2:34 AM57 °FClear.No wind94%30.01 "Hg10 mi
2:14 AM59 °FClear.3 mph88%30.03 "Hg10 mi
1:54 AM61 °FClear.No wind83%30.04 "Hg10 mi
1:34 AM59 °FPassing clouds.No wind94%30.05 "Hg10 mi
1:14 AM59 °FPassing clouds.8 mph88%30.06 "Hg10 mi
12:53 AM61 °FPassing clouds.3 mph83%30.06 "Hg10 mi
12:34 AM61 °FMostly cloudy.No wind88%30.06 "Hg10 mi
11:54 PM
Aug 22
61 °FThundershowers. Passing clouds.No wind88%30.08 "Hg10 mi
11:34 PM61 °FPartly cloudy.3 mph88%30.08 "Hg10 mi
11:14 PM61 °FMostly cloudy.6 mph88%30.08 "Hg10 mi
9:45 PM63 °FPartly cloudy.5 mph83%30.09 "Hg15 mi
8:45 PM63 °FBroken clouds.6 mph83%30.10 "Hg15 mi
7:45 PM64 °FPartly sunny.6 mph83%30.07 "Hg30 mi
6:45 PM66 °FLight rain. Mostly cloudy.8 mph78%30.07 "Hg15 mi
3:45 PM72 °FOvercast.9 mph57%30.11 "Hg30 mi
Weather by CustomWeather, © 2014

See weather overviewHow to use our weather pages